Regional Weather Roundup
Issued by NWS

Home | Current Version | Previous Version | Graphics & Text | Print | Product List | Glossary On
Versions: 1 2 3 4 5 6 7 8 9 10 11 12 13 14 15 16 17 18 19 20 21 22 23 24 25 26 27 28 29 30 31 32 33 34 35 36 37 38 39 40 41 42 43 44 45 46 47 48 49 50
000
ASUS44 KMEG 280710
RWRTN
TENNESSEE HOURLY STATE WEATHER ROUNDUP
NATIONAL WEATHER SERVICE MEMPHIS TN
200 AM CDT FRI AUG 28 2015

TNZ002-004-019-021-049-052-054-088>092-280800-
WEST TENNESSEE

CITY           SKY/WX    TMP DP  RH WIND       PRES   REMARKS
MEMPHIS INTL   CLEAR     67  59  75 CALM      30.05F
NWS MEMPHIS      N/A     61 N/A N/A MISG        N/A
JACKSON        CLEAR     57  55  93 CALM      30.06F FOG
DYERSBURG      CLEAR    N/A N/A N/A MISG        N/A
UNION CITY     CLEAR    N/A N/A N/A CALM      30.06F
LEXINGTON      CLEAR     57  57 100 CALM      30.06S
$$

TNZ008-025-027-028-033-062-065-066-280800-
NORTH MIDDLE TENNESSEE

CITY           SKY/WX    TMP DP  RH WIND       PRES   REMARKS
NASHVILLE      CLEAR     65  56  72 N5        30.09S
CLARKSVILLE    CLEAR     60  55  83 E6        30.08F
SMYRNA         CLEAR     58  56  93 CALM      30.09S
COOKEVILLE     CLEAR     57  57 100 CALM      30.09S
CROSSVILLE     CLEAR     60  56  86 NE3       30.14S
$$

TNZ061-075-076-078-094-096-097-280800-
SOUTH MIDDLE TENNESSEE

CITY           SKY/WX    TMP DP  RH WIND       PRES   REMARKS
FAYETTEVILLE   CLEAR     64  59  82 CALM      30.06F
TULLAHOMA      CLEAR     64  57  77 E3        30.09S
WINCHESTER     CLEAR     61  59  94 S3        30.08S
MCMINNVILLE    CLEAR     61  61 100 NE3       30.09S
COLUMBIA       CLEAR     61  61 100 CALM      30.07S
$$

TNZ017-018-042-046-047-280800-
NORTHEAST TENNESSEE

CITY           SKY/WX    TMP DP  RH WIND       PRES   REMARKS
TRI CITIES     PTCLDY    61  58  90 CALM      30.14S
ELIZABETHTON   SUNNY     57  57 100 CALM      30.14F
$$

TNZ012-013-036-069-073-074-280800-
CENTRAL EAST TENNESSEE

CITY           SKY/WX    TMP DP  RH WIND       PRES   REMARKS
KNOXVILLE      PTCLDY    68  59  73 NE7       30.08F
OAK RIDGE      CLOUDY    66  59  78 CALM      30.11F
MORRISTOWN     SUNNY     64  57  77 NE5       30.12F
$$

TNZ083-085-099-280800-
SOUTHEAST TENNESSEE

CITY           SKY/WX    TMP DP  RH WIND       PRES   REMARKS
CHATTANOOGA    CLEAR     70  62  76 N6        30.08S
$$

SKY/WX REPORTED AS FAIR MEANS FEW OR NO CLOUDS BELOW
12 THOUSAND FEET.



USA.gov is the U.S. government's official web portal to all federal, state and local government web resources and services.